User: anonymous   Login
Location: Morosaglia
(42.4360°N, 9.3069°E)
Time: 15:12:48
(UTC+00:00)
Language:

UNK - Orbit

View from above orbital plane
View from above orbital plane
View from above satellite
View from above satellite

Ground track
Ground track

The orbit data is extracted from the following two-line orbital elements,

1 27940U 03042B   21162.97305752  .00000025  00000-0  13713-4 0  9997
2 27940  98.1605 296.0269 0014015   3.6323 356.4980 14.65250659946147
Epoch (UTC): 11 June 2021 23:21:12
Eccentricity: 0.0014015
inclination: 98.1605°
perigee height: 666 km
apogee height: 686 km
right ascension of ascending node: 296.0269°
argument of perigee: 3.6323°
revolutions per day: 14.65250659
mean anomaly at epoch: 356.4980°
orbit number at epoch: 94614

The dashed part of the orbit path shows where the satellite is in the earth's shadow,  

DLR